Le nostre stazioni meteo in Italia

Pubblicità
Il mio iltempo24.it
Pescara, Italia (16230): Temperatura & dewpoint: 18.07.2019 07:00:00 - 24.07.2019 07:00:00 (CEST)Pescara, Italia (16230): velocità del vento: 18.07.2019 07:00:00 - 24.07.2019 07:00:00 (CEST)Pescara, Italia (16230): direzione del vento: 18.07.2019 07:00:00 - 24.07.2019 07:00:00 (CEST)Pescara, Italia (16230): reduced air pressure: 18.07.2019 07:00:00 - 24.07.2019 07:00:00 (CEST)Pescara, Italia (16230): visibility: 18.07.2019 07:00:00 - 24.07.2019 07:00:00 (CEST)Pescara, Italia (16230): precipitazioni: 18.07.2019 07:00:00 - 24.07.2019 07:00:00 (CEST)
Data & Tempo tt [°C] td [°C] ff [km/h] ff [kn] dd ppp [hPa] vv [km] rr [mm]
24.07.2019 07:00:00 - - - - - - - -
24.07.2019 06:00:00 20,0 14,0 9 5 SO - 10 -
24.07.2019 05:00:00 20,3 14,4 8 4 SO 1017,4 10 0,0
24.07.2019 04:00:00 21,0 15,0 11 6 OSO - 10 -
24.07.2019 03:00:00 21,0 15,0 9 5 SO - 10 -
24.07.2019 02:00:00 20,9 15,6 8 4 SO 1017,8 25 -
24.07.2019 01:00:00 21,0 16,0 8 4 SO - 10 -
24.07.2019 00:00:00 22,0 16,0 8 4 SO - 10 -
23.07.2019 23:00:00 22,9 16,7 8 4 SO 1017,7 30 0,0
23.07.2019 22:00:00 26,0 17,0 4 2 - - 10 -
23.07.2019 21:00:00 28,0 17,0 4 2 O - 10 -
23.07.2019 20:00:00 30,5 15,2 2 1 N 1017,4 30 -
23.07.2019 19:00:00 30,0 16,0 8 4 ENE - 10 -
23.07.2019 18:00:00 31,0 16,0 11 6 NE - 10 -
23.07.2019 17:00:00 30,7 17,2 9 5 NNE 1018,2 30 0,0
23.07.2019 16:00:00 31,0 18,0 13 7 NE - 10 -
23.07.2019 15:00:00 31,0 18,0 11 6 NE - 10 -
23.07.2019 14:00:00 30,3 17,3 11 6 N 1019,3 30 -
23.07.2019 13:00:00 31,0 17,0 16 9 NNE - 10 -
23.07.2019 12:00:00 30,0 17,0 13 7 NNE - 10 -
23.07.2019 11:00:00 30,0 17,1 13 7 N 1019,9 30 0,0
23.07.2019 10:00:00 30,0 19,0 4 2 - - 10 -
23.07.2019 09:00:00 27,0 20,0 9 5 SO - 10 -
23.07.2019 08:00:00 24,6 19,5 9 5 OSO 1019,6 30 -
23.07.2019 07:00:00 22,0 19,0 9 5 SO - 10 -
23.07.2019 06:00:00 21,0 19,0 8 4 OSO - 10 -
23.07.2019 05:00:00 20,8 18,8 8 4 SSO 1019,1 20 0,0
23.07.2019 04:00:00 21,0 19,0 5 3 SO - 10 -
23.07.2019 03:00:00 23,0 20,0 9 5 SO - 10 -
23.07.2019 02:00:00 22,9 19,9 9 5 SO 1019,9 25 -
23.07.2019 01:00:00 23,0 20,0 11 6 SO - 10 -
23.07.2019 00:00:00 24,0 21,0 4 2 - - 10 -
22.07.2019 23:00:00 23,7 20,8 8 4 SO 1020,3 30 0,0
22.07.2019 22:00:00 26,0 21,0 4 2 OSO - 10 -
22.07.2019 21:00:00 27,0 21,0 9 5 N - 10 -
22.07.2019 20:00:00 28,1 21,7 11 6 N 1019,7 30 -
22.07.2019 19:00:00 29,0 21,0 4 2 - - 10 -
22.07.2019 18:00:00 29,0 22,0 11 6 N - 10 -
22.07.2019 17:00:00 29,6 21,4 13 7 NE 1020,0 30 0,0
22.07.2019 16:00:00 30,0 19,0 15 8 NNE - 10 -
22.07.2019 15:00:00 31,0 17,0 21 11 NNE - 10 -
22.07.2019 14:00:00 31,4 15,6 13 7 NNE 1020,7 10 -
22.07.2019 13:00:00 30,0 18,0 13 7 NNE - 10 -
22.07.2019 12:00:00 30,0 20,0 13 7 NNE - 10 -
22.07.2019 11:00:00 29,4 18,9 11 6 NNO 1021,4 30 0,0
22.07.2019 10:00:00 29,0 17,0 9 5 NE - 10 -
22.07.2019 09:00:00 28,0 17,0 4 2 - - 10 -
22.07.2019 08:00:00 24,2 18,2 4 2 SO 1020,9 30 -
22.07.2019 07:00:00 22,0 18,0 8 4 SO - 10 -
22.07.2019 06:00:00 20,0 18,0 9 5 SO - 10 -
22.07.2019 05:00:00 20,2 18,5 9 5 SSO 1020,3 20 0,0
22.07.2019 04:00:00 21,0 19,0 9 5 SO - 10 -
22.07.2019 03:00:00 22,0 19,0 8 4 SSO - 10 -
22.07.2019 02:00:00 21,9 19,6 8 4 SSO 1020,3 10 -
22.07.2019 01:00:00 24,0 20,0 5 3 OSO - 10 -
22.07.2019 00:00:00 23,0 21,0 11 6 SSO - 10 -
21.07.2019 23:00:00 24,8 22,5 2 1 - 1020,2 25 0,0
21.07.2019 22:00:00 26,0 22,0 8 4 NE - 10 -
21.07.2019 21:00:00 27,0 22,0 8 4 NE - 10 -
21.07.2019 20:00:00 28,5 22,7 8 4 NNE 1019,0 25 -
21.07.2019 19:00:00 30,0 20,0 8 4 NE - 10 -
21.07.2019 18:00:00 31,0 20,0 9 5 ENE - 10 -
21.07.2019 17:00:00 30,9 18,9 13 7 ENE 1019,1 25 0,0
21.07.2019 16:00:00 32,0 19,0 16 9 E - 10 -
21.07.2019 15:00:00 32,0 18,0 16 9 ENE - 10 -
21.07.2019 14:00:00 32,4 17,3 13 7 ENE 1019,4 20 -
21.07.2019 13:00:00 32,0 17,0 11 6 E - 10 -
21.07.2019 12:00:00 32,0 16,0 9 5 ENE - 10 -
21.07.2019 11:00:00 31,3 14,2 4 2 NNE 1019,8 30 0,0
21.07.2019 10:00:00 29,0 18,0 5 3 SO - 10 -
21.07.2019 09:00:00 27,0 19,0 5 3 OSO - 10 -
21.07.2019 08:00:00 24,0 18,4 4 2 SSO 1019,9 30 -
21.07.2019 07:00:00 21,0 18,0 5 3 O - 10 -
21.07.2019 06:00:00 19,0 17,0 5 3 SO - 10 -
21.07.2019 05:00:00 19,0 16,9 9 5 SSO 1018,9 10 0,0
21.07.2019 04:00:00 20,0 18,0 8 4 SSO - 10 -
21.07.2019 03:00:00 20,0 18,0 8 4 SO - 10 -
21.07.2019 02:00:00 21,7 18,3 5 3 SO 1019,2 10 -
21.07.2019 01:00:00 22,0 19,0 5 3 SO - 10 -
21.07.2019 00:00:00 23,0 19,0 5 3 OSO - 10 -
20.07.2019 23:00:00 23,6 19,5 4 2 OSO 1019,1 20 0,0
20.07.2019 22:00:00 26,0 19,0 8 4 E - 10 -
20.07.2019 21:00:00 27,0 19,0 8 4 E - 10 -
20.07.2019 20:00:00 27,6 18,6 5 3 E 1018,2 30 -
20.07.2019 19:00:00 29,0 20,0 9 5 ENE - 10 -
20.07.2019 18:00:00 30,0 18,0 15 8 E - 10 -
20.07.2019 17:00:00 29,6 19,8 13 7 ENE 1017,9 30 0,0
20.07.2019 16:00:00 30,0 19,0 15 8 ENE - 10 -
20.07.2019 15:00:00 30,0 18,0 16 9 ENE - 10 -
20.07.2019 14:00:00 30,0 18,0 16 9 ENE 1018,2 30 -
20.07.2019 13:00:00 30,0 18,0 15 8 ENE - 10 -
20.07.2019 12:00:00 29,0 19,0 13 7 NE - 10 -
20.07.2019 11:00:00 28,7 17,4 8 4 NE 1018,5 30 0,0
20.07.2019 10:00:00 27,0 17,0 8 4 SO - 10 -
20.07.2019 09:00:00 25,0 17,0 8 4 OSO - 10 -
20.07.2019 08:00:00 22,3 16,4 8 4 OSO 1018,1 30 -
20.07.2019 07:00:00 19,0 16,0 5 3 S - 10 -
20.07.2019 06:00:00 17,0 15,0 9 5 SSO - 10 -
20.07.2019 05:00:00 17,6 15,8 8 4 SSO 1017,2 15 0,0
20.07.2019 04:00:00 18,0 17,0 11 6 SSO - 10 -
20.07.2019 03:00:00 19,0 17,0 5 3 OSO - 10 -
20.07.2019 02:00:00 19,8 17,4 9 5 SO 1017,1 10 -
20.07.2019 01:00:00 20,0 17,0 8 4 SO - 10 -
20.07.2019 00:00:00 21,0 18,0 4 2 - - 10 -
19.07.2019 23:00:00 22,8 17,3 4 2 NNO 1017,1 30 0,0
19.07.2019 22:00:00 25,0 17,0 5 3 - - 10 -
19.07.2019 21:00:00 25,0 17,0 2 1 - - 10 -
19.07.2019 20:00:00 26,4 18,2 5 3 NE 1016,2 30 -
19.07.2019 19:00:00 27,0 18,0 13 7 ENE - 10 -
19.07.2019 18:00:00 28,0 18,0 8 4 NE - 10 -
19.07.2019 17:00:00 28,8 17,6 13 7 ENE 1015,6 25 0,0
19.07.2019 16:00:00 29,0 19,0 15 8 ENE - 10 -
19.07.2019 15:00:00 28,0 20,0 16 9 ENE - 10 -
19.07.2019 14:00:00 28,0 20,5 16 9 ENE 1016,3 25 -
19.07.2019 13:00:00 28,0 21,0 15 8 ENE - 10 -
19.07.2019 12:00:00 27,0 21,0 16 9 NE - 10 -
19.07.2019 11:00:00 28,4 19,4 4 2 N 1016,3 30 0,0
19.07.2019 10:00:00 26,0 19,0 2 1 - - 10 -
19.07.2019 09:00:00 24,0 18,0 9 5 SO - 10 -
19.07.2019 08:00:00 21,3 16,8 9 5 SSO 1015,8 30 -
19.07.2019 07:00:00 19,0 17,0 8 4 SSO - 10 -
19.07.2019 06:00:00 17,0 16,0 8 4 SSO - 10 -
19.07.2019 05:00:00 17,7 16,2 5 3 SO 1014,8 10 0,0
19.07.2019 04:00:00 18,0 17,0 8 4 SO - 10 -
19.07.2019 03:00:00 19,0 17,0 9 5 SSO - 10 -
19.07.2019 02:00:00 19,8 17,6 5 3 SO 1014,6 30 -
19.07.2019 01:00:00 20,0 17,0 8 4 SSO - 10 -
19.07.2019 00:00:00 22,0 18,0 5 3 S - 10 -
18.07.2019 23:00:00 24,1 17,7 2 1 ENE 1013,8 25 0,0
18.07.2019 22:00:00 25,0 17,0 2 1 - - 10 -
18.07.2019 21:00:00 26,0 17,0 5 3 E - 10 -
18.07.2019 20:00:00 26,5 16,9 5 3 E 1012,2 30 -
18.07.2019 19:00:00 27,0 17,0 5 3 E - 10 -
18.07.2019 18:00:00 27,0 17,0 11 6 E - 10 -
18.07.2019 17:00:00 28,5 17,8 13 7 ENE 1011,2 30 0,0
18.07.2019 16:00:00 29,0 16,0 18 10 E - 10 -
18.07.2019 15:00:00 30,0 13,0 13 7 E - 10 -
18.07.2019 14:00:00 29,8 14,2 15 8 ENE 1011,6 30 -
18.07.2019 13:00:00 - - - - - - - -
18.07.2019 12:00:00 29,0 17,0 15 8 ENE - 10 -
18.07.2019 11:00:00 28,1 15,3 11 6 NE 1011,9 45 0,0
18.07.2019 10:00:00 27,0 13,0 4 2 - - 10 -
18.07.2019 09:00:00 23,0 16,0 8 4 SSO - 10 -
18.07.2019 08:00:00 20,1 14,9 8 4 SSO 1011,6 45 -
18.07.2019 07:00:00 17,0 14,0 11 6 SSO - 10 -

tt = Temperatura
td = dewpoint
ff = velocità del vento
dd = direzione del vento
ppp = reduced air pressure
vv = visibility
rr = precipitazioni

Stazioni seguenti

WeatherPro
AMSI
MeteoEarth